LUCH-5A (37951 NORAD) Tracking and Keplerian Element Data

This shows tracking and keplerian element data for the satellite.

Feedback or suggestion? Click here.




ElementValue
Catalog37951
NameLUCH-5A
Epoch Orbit5125
Epoch Day353.51441367
Epoch Year2025
RAAN76.4843
Inclination8.2961
Eccentricity0.0005087
Argument of Perigee189.4736
Mean Anonmoly174.6688
Mean Motion1.0026908
Decay Rate-3.2E-07
L11 37951U 11074B 25353.51441367 -.00000032 00000+0 00000+0 0 9991
L22 37951 8.2961 76.4843 0005087 189.4736 174.6688 1.00269080 51252



Live tracking and technical data element details for LUCH-5A (NORAD 37951). LUCH-5A can be tracked NOW for your location showing map with azimuth and elevation plus other details from your city location.







IsCatalogInMostPopularTable: catalog: 37951, numindb: 583
Update: records affected: 1



GetName: 37951 LUCH-5A

Hit Count: updated at: Sun, 08 Feb 2026 17:14:30 GMT